AAL1849 KATL-KDCA

Flight info

Callsign AAL1849
Flight time 1h 16m
Altitude 37000
Route JACCC2 KELLN Q56 KIWII WAVES CAPSS4
Aircraft B738/M-SDE2E3FGHIRWXY/LB1

Departure

Time 2026-05-08 02:38
Airport Hartsfield Jackson Atlanta International Airport (KATL)

Arrival

Time 2026-05-08 03:54
Airport Ronald Reagan Washington National Airport (KDCA)
Time Latitude Longitude Altitude Speed Heading
2026-05-08 02:14 33.63780 -84.42645 1005 ft 0 kts 89°
2026-05-08 02:29 33.63780 -84.42656 1005 ft 4 kts 91°
2026-05-08 02:29 33.63782 -84.42688 1005 ft 4 kts 100°
2026-05-08 02:29 33.63789 -84.42718 1005 ft 4 kts 123°
2026-05-08 02:30 33.63805 -84.42735 1005 ft 2 kts 179°
2026-05-08 02:30 33.63807 -84.42735 1005 ft 0 kts 180°
2026-05-08 02:32 33.63805 -84.42735 1005 ft 3 kts 179°
2026-05-08 02:32 33.63741 -84.42732 1005 ft 15 kts 179°
2026-05-08 02:32 33.63657 -84.42689 1006 ft 14 kts 102°
2026-05-08 02:33 33.63655 -84.42577 1006 ft 13 kts 91°
2026-05-08 02:33 33.63655 -84.42472 1006 ft 12 kts 89°
2026-05-08 02:33 33.63655 -84.42370 1006 ft 12 kts 90°
2026-05-08 02:33 33.63656 -84.42273 1006 ft 11 kts 90°
2026-05-08 02:34 33.63656 -84.42177 1006 ft 14 kts 90°
2026-05-08 02:34 33.63656 -84.42032 1006 ft 20 kts 90°
2026-05-08 02:34 33.63656 -84.41839 1005 ft 26 kts 90°
2026-05-08 02:34 33.63656 -84.41622 1005 ft 25 kts 90°
2026-05-08 02:35 33.63656 -84.41416 1005 ft 24 kts 90°
2026-05-08 02:35 33.63655 -84.41226 1005 ft 23 kts 89°
2026-05-08 02:35 33.63655 -84.41040 1005 ft 22 kts 90°
2026-05-08 02:35 33.63656 -84.40874 1005 ft 19 kts 90°
2026-05-08 02:36 33.63642 -84.40762 1006 ft 5 kts 131°
2026-05-08 02:36 33.63587 -84.40743 1006 ft 11 kts 179°
2026-05-08 02:36 33.63511 -84.40745 1006 ft 11 kts 193°
2026-05-08 02:36 33.63470 -84.40829 1006 ft 13 kts 269°
2026-05-08 02:37 33.63470 -84.40884 1006 ft 5 kts 270°
2026-05-08 02:37 33.63470 -84.41147 1004 ft 68 kts 270°
2026-05-08 02:37 33.63468 -84.41997 1006 ft 133 kts 270°
2026-05-08 02:37 33.63471 -84.43315 1121 ft 177 kts 270°
2026-05-08 02:38 33.63468 -84.44761 2015 ft 168 kts 273°
2026-05-08 02:38 33.63391 -84.46138 2960 ft 165 kts 270°
2026-05-08 02:38 33.63335 -84.47600 3416 ft 192 kts 269°
2026-05-08 02:38 33.62895 -84.49203 3681 ft 226 kts 241°
2026-05-08 02:39 33.61929 -84.50889 3849 ft 260 kts 242°
2026-05-08 02:39 33.61059 -84.52822 4667 ft 260 kts 247°
2026-05-08 02:39 33.60290 -84.54712 5997 ft 245 kts 247°
2026-05-08 02:39 33.59515 -84.56559 6856 ft 252 kts 242°
2026-05-08 02:40 33.58173 -84.57959 7587 ft 271 kts 207°
2026-05-08 02:40 33.56311 -84.58425 8586 ft 275 kts 196°
2026-05-08 02:40 33.54343 -84.58529 9295 ft 288 kts 187°
2026-05-08 02:40 33.52353 -84.58423 9872 ft 291 kts 186°
2026-05-08 02:41 33.50353 -84.58338 10070 ft 285 kts 188°
2026-05-08 02:41 33.48345 -84.58125 10166 ft 301 kts 173°
2026-05-08 02:41 33.46436 -84.56868 10078 ft 331 kts 139°
2026-05-08 02:41 33.45247 -84.54472 9956 ft 341 kts 107°
2026-05-08 02:42 33.45077 -84.51672 9975 ft 338 kts 82°
2026-05-08 02:42 33.45391 -84.48877 9836 ft 337 kts 80°
2026-05-08 02:42 33.45653 -84.46125 9878 ft 337 kts 85°
2026-05-08 02:42 33.45742 -84.43317 9949 ft 336 kts 89°
2026-05-08 02:43 33.45824 -84.40575 10327 ft 339 kts 87°
2026-05-08 02:43 33.45888 -84.37595 9545 ft 368 kts 90°
2026-05-08 02:43 33.45859 -84.34587 9697 ft 351 kts 88°
2026-05-08 02:43 33.46216 -84.31813 9862 ft 326 kts 69°
2026-05-08 02:44 33.47136 -84.29391 9936 ft 320 kts 55°
2026-05-08 02:44 33.48261 -84.27087 10304 ft 330 kts 54°
2026-05-08 02:44 33.49484 -84.24640 9898 ft 350 kts 56°
2026-05-08 02:44 33.50654 -84.22180 9982 ft 338 kts 57°
2026-05-08 02:45 33.51781 -84.19723 10007 ft 330 kts 57°
2026-05-08 02:45 33.52867 -84.17316 10022 ft 331 kts 57°
2026-05-08 02:45 33.53978 -84.14849 10194 ft 350 kts 57°
2026-05-08 02:45 33.55171 -84.12197 10517 ft 371 kts 57°
2026-05-08 02:46 33.56402 -84.09446 11068 ft 380 kts 57°
2026-05-08 02:46 33.57660 -84.06620 11734 ft 386 kts 57°
2026-05-08 02:46 33.58926 -84.03768 12457 ft 390 kts 56°
2026-05-08 02:46 33.60208 -84.00882 13141 ft 395 kts 56°
2026-05-08 02:47 33.61514 -83.97939 13806 ft 401 kts 56°
2026-05-08 02:47 33.62816 -83.95004 14387 ft 406 kts 56°
2026-05-08 02:47 33.64148 -83.92000 14996 ft 411 kts 56°
2026-05-08 02:47 33.65499 -83.88947 15599 ft 415 kts 56°
2026-05-08 02:48 33.66852 -83.85892 16203 ft 420 kts 56°
2026-05-08 02:48 33.68239 -83.82755 16799 ft 425 kts 56°
2026-05-08 02:48 33.69633 -83.79599 17384 ft 430 kts 56°
2026-05-08 02:48 33.71039 -83.76410 17998 ft 434 kts 56°
2026-05-08 02:49 33.72448 -83.73213 18543 ft 439 kts 56°
2026-05-08 02:49 33.73888 -83.69945 19058 ft 443 kts 56°
2026-05-08 02:49 33.75336 -83.66655 19599 ft 447 kts 56°
2026-05-08 02:49 33.76833 -83.63374 20107 ft 449 kts 53°
2026-05-08 02:50 33.78480 -83.60174 20620 ft 450 kts 50°
2026-05-08 02:50 33.80211 -83.56998 21114 ft 455 kts 49°
2026-05-08 02:50 33.81960 -83.53838 21589 ft 460 kts 49°
2026-05-08 02:50 33.83730 -83.50626 22086 ft 463 kts 49°
2026-05-08 02:51 33.85479 -83.47415 22575 ft 467 kts 49°
2026-05-08 02:51 33.87267 -83.44102 23039 ft 471 kts 49°
2026-05-08 02:51 33.89033 -83.40807 23458 ft 475 kts 49°
2026-05-08 02:51 33.90830 -83.37439 23856 ft 479 kts 49°
2026-05-08 02:52 33.92641 -83.34036 24254 ft 482 kts 50°
2026-05-08 02:52 33.94453 -83.30625 24668 ft 484 kts 50°
2026-05-08 02:52 33.96257 -83.27229 25061 ft 487 kts 50°
2026-05-08 02:52 33.98085 -83.23786 25446 ft 490 kts 50°
2026-05-08 02:53 33.99930 -83.20310 25822 ft 493 kts 50°
2026-05-08 02:53 34.01783 -83.16817 26189 ft 496 kts 50°
2026-05-08 02:53 34.03650 -83.13292 26567 ft 500 kts 50°
2026-05-08 02:53 34.05514 -83.09772 26860 ft 505 kts 50°
2026-05-08 02:54 34.07410 -83.06185 27220 ft 507 kts 50°
2026-05-08 02:54 34.09309 -83.02587 27603 ft 509 kts 50°
2026-05-08 02:54 34.11221 -82.98962 27945 ft 512 kts 50°
2026-05-08 02:54 34.13141 -82.95320 28293 ft 515 kts 50°
2026-05-08 02:55 34.15044 -82.91696 28616 ft 518 kts 50°
2026-05-08 02:55 34.18929 -82.84256 29272 ft 523 kts 51°
2026-05-08 02:55 34.20848 -82.80571 29595 ft 526 kts 51°
2026-05-08 02:56 34.22807 -82.76806 29903 ft 528 kts 50°
2026-05-08 02:56 34.24775 -82.73024 30151 ft 532 kts 51°
2026-05-08 02:56 34.26751 -82.69221 30418 ft 535 kts 50°
2026-05-08 02:56 34.28738 -82.65397 30584 ft 540 kts 50°
2026-05-08 02:57 34.30713 -82.61589 30800 ft 542 kts 50°
2026-05-08 02:57 34.32718 -82.57716 31103 ft 543 kts 50°
2026-05-08 02:57 34.34720 -82.53842 31390 ft 544 kts 50°
2026-05-08 02:57 34.36740 -82.49933 31637 ft 546 kts 50°
2026-05-08 02:58 34.38754 -82.46033 31888 ft 547 kts 50°
2026-05-08 02:58 34.40751 -82.42159 32195 ft 547 kts 50°
2026-05-08 02:58 34.42770 -82.38237 32562 ft 545 kts 51°
2026-05-08 02:58 34.44775 -82.34340 32925 ft 544 kts 51°
2026-05-08 02:59 34.46698 -82.30356 33214 ft 547 kts 54°
2026-05-08 02:59 34.48472 -82.26362 33494 ft 549 kts 56°
2026-05-08 02:59 34.50262 -82.22273 33801 ft 550 kts 55°
2026-05-08 02:59 34.52098 -82.18173 34005 ft 551 kts 54°
2026-05-08 03:00 34.54076 -82.14205 34270 ft 544 kts 48°
2026-05-08 03:00 34.56229 -82.10514 34579 ft 538 kts 44°
2026-05-08 03:00 34.58496 -82.06904 34831 ft 536 kts 43°
2026-05-08 03:00 34.60777 -82.03357 35044 ft 536 kts 43°
2026-05-08 03:01 34.63078 -81.99758 35274 ft 537 kts 43°
2026-05-08 03:01 34.65345 -81.96149 35538 ft 537 kts 44°
2026-05-08 03:01 34.67560 -81.92559 35783 ft 537 kts 44°
2026-05-08 03:01 34.69787 -81.88903 36000 ft 537 kts 44°
2026-05-08 03:02 34.72005 -81.85235 36293 ft 538 kts 45°
2026-05-08 03:02 34.74212 -81.81567 36457 ft 539 kts 44°
2026-05-08 03:02 34.76431 -81.77884 36656 ft 540 kts 43°
2026-05-08 03:02 34.78656 -81.74192 36897 ft 538 kts 43°
2026-05-08 03:03 34.80846 -81.70555 37031 ft 539 kts 43°
2026-05-08 03:03 34.85304 -81.63159 36987 ft 540 kts 44°
2026-05-08 03:04 34.89712 -81.55814 36988 ft 533 kts 44°
2026-05-08 03:04 34.94058 -81.48560 37005 ft 531 kts 44°
2026-05-08 03:05 34.98416 -81.41289 37008 ft 531 kts 43°
2026-05-08 03:05 35.00818 -81.38402 37011 ft 509 kts 45°
2026-05-08 03:05 35.03034 -81.35220 36958 ft 490 kts 53°
2026-05-08 03:05 35.04890 -81.31800 36916 ft 474 kts 58°
2026-05-08 03:06 35.06573 -81.28395 36760 ft 462 kts 58°
2026-05-08 03:06 35.07690 -81.26183 36659 ft 459 kts 57°
2026-05-08 03:06 35.10035 -81.21842 36573 ft 463 kts 54°
2026-05-08 03:07 35.13171 -81.16459 36562 ft 469 kts 53°
2026-05-08 03:07 35.17052 -81.09971 36572 ft 476 kts 53°
2026-05-08 03:08 35.20941 -81.03412 36616 ft 479 kts 53°
2026-05-08 03:08 35.24866 -80.96776 36613 ft 481 kts 53°
2026-05-08 03:09 35.28772 -80.90162 36607 ft 481 kts 53°
2026-05-08 03:09 35.32691 -80.83514 36633 ft 481 kts 53°
2026-05-08 03:10 35.36606 -80.76858 36633 ft 480 kts 53°
2026-05-08 03:10 35.40517 -80.70196 36696 ft 479 kts 53°
2026-05-08 03:11 35.44375 -80.63609 36696 ft 478 kts 53°
2026-05-08 03:11 35.48254 -80.56978 36665 ft 477 kts 53°
2026-05-08 03:12 35.52123 -80.50353 36669 ft 476 kts 53°
2026-05-08 03:12 35.55963 -80.43764 36509 ft 483 kts 42°
2026-05-08 03:13 35.59915 -80.36984 36663 ft 488 kts 43°
2026-05-08 03:13 35.61882 -80.33589 36845 ft 488 kts 43°
2026-05-08 03:13 35.63858 -80.30179 36935 ft 490 kts 43°
2026-05-08 03:14 35.67838 -80.23310 37041 ft 497 kts 43°
2026-05-08 03:14 35.71872 -80.16336 37022 ft 506 kts 43°
2026-05-08 03:15 35.75967 -80.09234 37026 ft 515 kts 44°
2026-05-08 03:15 35.80155 -80.01953 37032 ft 524 kts 44°
2026-05-08 03:16 35.84376 -79.94588 37075 ft 534 kts 44°
2026-05-08 03:16 35.88709 -79.87004 36998 ft 544 kts 44°
2026-05-08 03:17 35.93089 -79.79351 36987 ft 551 kts 44°
2026-05-08 03:17 35.97622 -79.71652 37000 ft 557 kts 44°
2026-05-08 03:18 36.02225 -79.63863 37007 ft 564 kts 44°
2026-05-08 03:18 36.06864 -79.55947 37058 ft 571 kts 44°
2026-05-08 03:19 36.11502 -79.47991 37010 ft 574 kts 44°
2026-05-08 03:19 36.16180 -79.39954 36984 ft 575 kts 44°
2026-05-08 03:20 36.20830 -79.31946 36977 ft 568 kts 44°
2026-05-08 03:20 36.25405 -79.24057 36999 ft 564 kts 44°
2026-05-08 03:21 36.29985 -79.16148 37033 ft 565 kts 44°
2026-05-08 03:21 36.34563 -79.08223 37033 ft 565 kts 44°
2026-05-08 03:22 36.39117 -79.00315 37023 ft 565 kts 44°
2026-05-08 03:22 36.43690 -78.92354 37019 ft 566 kts 44°
2026-05-08 03:23 36.48245 -78.84401 37052 ft 569 kts 45°
2026-05-08 03:23 36.52820 -78.76331 36984 ft 571 kts 44°
2026-05-08 03:23 36.55283 -78.72491 36975 ft 557 kts 34°
2026-05-08 03:24 36.57990 -78.69104 37001 ft 551 kts 31°
2026-05-08 03:24 36.63521 -78.62590 36988 ft 549 kts 31°
2026-05-08 03:25 36.69091 -78.56004 37092 ft 551 kts 31°
2026-05-08 03:25 36.74586 -78.49350 37008 ft 554 kts 32°
2026-05-08 03:26 36.80089 -78.42599 37005 ft 554 kts 32°
2026-05-08 03:26 36.85587 -78.35838 36994 ft 552 kts 32°
2026-05-08 03:27 36.91029 -78.29145 37055 ft 552 kts 32°
2026-05-08 03:27 36.96512 -78.22397 36984 ft 552 kts 32°
2026-05-08 03:28 37.01984 -78.15647 36976 ft 551 kts 32°
2026-05-08 03:28 37.04718 -78.12273 36423 ft 560 kts 32°
2026-05-08 03:28 37.07514 -78.08829 35703 ft 561 kts 32°
2026-05-08 03:28 37.10288 -78.05387 35111 ft 559 kts 32°
2026-05-08 03:29 37.13050 -78.01954 34739 ft 554 kts 32°
2026-05-08 03:29 37.15752 -77.98596 34078 ft 554 kts 32°
2026-05-08 03:29 37.18518 -77.95171 33155 ft 560 kts 32°
2026-05-08 03:29 37.21284 -77.91736 32399 ft 560 kts 33°
2026-05-08 03:30 37.26820 -77.84833 30994 ft 557 kts 34°
2026-05-08 03:30 37.32282 -77.78005 29438 ft 555 kts 36°
2026-05-08 03:31 37.37736 -77.71166 27712 ft 550 kts 36°
2026-05-08 03:31 37.43048 -77.64492 26555 ft 536 kts 36°
2026-05-08 03:32 37.45681 -77.61184 25958 ft 529 kts 36°
2026-05-08 03:32 37.48284 -77.57914 25362 ft 523 kts 37°
2026-05-08 03:32 37.50832 -77.54712 24799 ft 518 kts 37°
2026-05-08 03:32 37.53366 -77.51520 24450 ft 509 kts 37°
2026-05-08 03:33 37.55880 -77.48481 24359 ft 486 kts 30°
2026-05-08 03:33 37.58552 -77.46095 24275 ft 457 kts 19°
2026-05-08 03:33 37.61306 -77.44309 24109 ft 434 kts 11°
2026-05-08 03:33 37.64048 -77.43027 23709 ft 417 kts
2026-05-08 03:34 37.66851 -77.42194 23133 ft 412 kts
2026-05-08 03:34 37.69651 -77.41386 22601 ft 410 kts
2026-05-08 03:34 37.72418 -77.40556 22115 ft 408 kts
2026-05-08 03:34 37.75168 -77.39711 21667 ft 405 kts
2026-05-08 03:35 37.77900 -77.38866 21214 ft 402 kts
2026-05-08 03:35 37.80583 -77.38036 20629 ft 402 kts
2026-05-08 03:35 37.83306 -77.37195 20071 ft 403 kts
2026-05-08 03:36 37.88418 -77.35612 19046 ft 402 kts
2026-05-08 03:36 37.91140 -77.34770 18504 ft 402 kts
2026-05-08 03:36 37.93858 -77.33934 17934 ft 401 kts
2026-05-08 03:36 37.96567 -77.33101 17331 ft 400 kts
2026-05-08 03:37 37.99279 -77.32267 16757 ft 399 kts
2026-05-08 03:37 38.01981 -77.31435 16163 ft 398 kts
2026-05-08 03:37 38.04639 -77.30617 15575 ft 397 kts
2026-05-08 03:37 38.07318 -77.29791 15103 ft 393 kts
2026-05-08 03:38 38.09967 -77.28963 14659 ft 389 kts
2026-05-08 03:38 38.12595 -77.28136 14222 ft 385 kts
2026-05-08 03:38 38.15150 -77.27332 13801 ft 381 kts
2026-05-08 03:38 38.17706 -77.26528 13336 ft 376 kts
2026-05-08 03:39 38.20236 -77.25735 12921 ft 372 kts
2026-05-08 03:39 38.22706 -77.24871 12624 ft 365 kts 10°
2026-05-08 03:39 38.25123 -77.23942 12326 ft 357 kts 10°
2026-05-08 03:39 38.27444 -77.23035 12048 ft 349 kts 10°
2026-05-08 03:40 38.29750 -77.22137 11767 ft 344 kts
2026-05-08 03:40 38.32027 -77.21269 11504 ft 338 kts
2026-05-08 03:40 38.34279 -77.20418 11255 ft 335 kts
2026-05-08 03:40 38.36519 -77.19571 10995 ft 332 kts
2026-05-08 03:41 38.38688 -77.18742 10881 ft 325 kts
2026-05-08 03:41 38.40832 -77.17916 10765 ft 315 kts
2026-05-08 03:41 38.42899 -77.17117 10676 ft 305 kts
2026-05-08 03:41 38.44895 -77.16346 10569 ft 295 kts
2026-05-08 03:42 38.46848 -77.15594 10477 ft 291 kts
2026-05-08 03:42 38.48758 -77.14858 10386 ft 288 kts
2026-05-08 03:42 38.50671 -77.14118 10302 ft 287 kts
2026-05-08 03:42 38.52583 -77.13371 10212 ft 286 kts
2026-05-08 03:43 38.54490 -77.12632 10120 ft 285 kts
2026-05-08 03:43 38.56365 -77.11906 10028 ft 285 kts 10°
2026-05-08 03:43 38.58273 -77.11156 9835 ft 289 kts 10°
2026-05-08 03:43 38.60204 -77.10412 9529 ft 293 kts 10°
2026-05-08 03:44 38.62161 -77.09660 9212 ft 291 kts 11°
2026-05-08 03:44 38.64091 -77.08916 8930 ft 288 kts 11°
2026-05-08 03:44 38.65981 -77.08187 8620 ft 286 kts 12°
2026-05-08 03:44 38.67884 -77.07453 8295 ft 282 kts 12°
2026-05-08 03:45 38.69772 -77.06885 8012 ft 276 kts
2026-05-08 03:45 38.71663 -77.06699 7745 ft 271 kts 359°
2026-05-08 03:45 38.73515 -77.06561 7476 ft 268 kts 359°
2026-05-08 03:45 38.75348 -77.06419 7209 ft 265 kts 357°
2026-05-08 03:46 38.77116 -77.06848 6975 ft 256 kts 335°
2026-05-08 03:46 38.78659 -77.07930 6729 ft 251 kts 326°
2026-05-08 03:46 38.80116 -77.09150 6480 ft 250 kts 325°
2026-05-08 03:46 38.81563 -77.10368 6219 ft 253 kts 326°
2026-05-08 03:47 38.83043 -77.11609 6017 ft 253 kts 324°
2026-05-08 03:47 38.84360 -77.13034 5928 ft 243 kts 315°
2026-05-08 03:47 38.85552 -77.14554 5708 ft 240 kts 314°
2026-05-08 03:47 38.86726 -77.16071 5435 ft 238 kts 315°
2026-05-08 03:48 38.87899 -77.17567 5198 ft 236 kts 315°
2026-05-08 03:48 38.89069 -77.19044 4926 ft 236 kts 315°
2026-05-08 03:48 38.90228 -77.20494 4662 ft 234 kts 315°
2026-05-08 03:48 38.91393 -77.21950 4405 ft 232 kts 316°
2026-05-08 03:49 38.92550 -77.23394 4127 ft 231 kts 316°
2026-05-08 03:49 38.93710 -77.24810 3867 ft 230 kts 321°
2026-05-08 03:49 38.95154 -77.25595 3768 ft 225 kts 352°
2026-05-08 03:49 38.96663 -77.25228 3697 ft 227 kts 22°
2026-05-08 03:50 38.97838 -77.23858 3560 ft 231 kts 46°
2026-05-08 03:50 38.98788 -77.22164 3247 ft 236 kts 49°
2026-05-08 03:50 38.99460 -77.20223 2961 ft 245 kts 77°
2026-05-08 03:50 38.99321 -77.18044 2736 ft 252 kts 104°
2026-05-08 03:51 38.98500 -77.16046 2661 ft 255 kts 133°
2026-05-08 03:51 38.97150 -77.14540 2410 ft 261 kts 150°
2026-05-08 03:51 38.95579 -77.13406 2120 ft 259 kts 155°
2026-05-08 03:51 38.94037 -77.12318 1979 ft 247 kts 152°
2026-05-08 03:52 38.92558 -77.11187 1604 ft 243 kts 152°
2026-05-08 03:52 38.91261 -77.09922 1370 ft 225 kts 135°
2026-05-08 03:52 38.90508 -77.08261 1129 ft 211 kts 116°
2026-05-08 03:52 38.89717 -77.06777 881 ft 195 kts 135°
2026-05-08 03:53 38.88827 -77.05535 698 ft 182 kts 135°
2026-05-08 03:53 38.87930 -77.04450 433 ft 171 kts 150°
2026-05-08 03:53 38.86851 -77.03994 222 ft 158 kts 174°
2026-05-08 03:53 38.85833 -77.03849 36 ft 140 kts 176°
2026-05-08 03:54 38.84948 -77.03759 26 ft 107 kts 175°
2026-05-08 03:54 38.84377 -77.03704 23 ft 51 kts 176°
2026-05-08 03:54 38.84191 -77.03703 24 ft 12 kts 231°
2026-05-08 03:54 38.84223 -77.03789 23 ft 13 kts 311°
2026-05-08 03:55 38.84244 -77.03812 25 ft 0 kts 326°
2026-05-08 03:55 38.84254 -77.03818 23 ft 4 kts 333°
2026-05-08 03:55 38.84292 -77.03830 27 ft 8 kts 354°
2026-05-08 03:56 38.84357 -77.03842 26 ft 12 kts 335°
2026-05-08 03:56 38.84386 -77.03942 25 ft 13 kts 268°
2026-05-08 03:56 38.84379 -77.04073 24 ft 16 kts 272°
2026-05-08 03:56 38.84473 -77.04129 24 ft 18 kts 349°
2026-05-08 03:57 38.84567 -77.04165 23 ft 11 kts 306°
2026-05-08 03:57 38.84566 -77.04264 23 ft 10 kts 262°
2026-05-08 03:57 38.84596 -77.04309 23 ft 6 kts
2026-05-08 03:57 38.84624 -77.04292 25 ft 1 kts 25°
2026-05-08 03:58 38.84626 -77.04291 25 ft 0 kts 26°